DELTA 1 DEB

基本信息
目录编号:
3416
目录名称:
DELTA 1 DEB
国际标识:
1968-069C
轨道中心:
EARTH
物体状态:
在轨
发射日期:
1968-08-16 UTC
轨道信息
数据来源: 国际轨道数据
星历时间: 2026-07-13T16:16:13+0800
半长轴: 7771.691km
偏心率: 0.0119423
轨道倾角: 101.729°
近地点辐角: 98.642°
升交点赤经: 328.899°
平近点角: 291.149°
近地点: 1300.742km
远地点: 1486.366km
周期: 113.640分钟
每日圈数: 12.671544
详细信息
发射场:
AFWTR
轨道高度:
LEO
数据来源:
AOE Integration Group
参考系:
TEME
时间系统:
UTC
历元类型:
SGP4
2D轨道图
3D轨道图
轨道高度分析图
轨道倾角分析图
轨道综合分析图
查看轨道综合分析图